• In Deutschland
  • Länderverzeichnis
  • Für 7 Tage
  • Wassertemperatur
  • Satellitenkarten
  • Wetterkarte
  • Widgets
  • user-avatar
    Anmelden

    Stündliche Wetter Barra do Dande

    Heute, 25 November, Samstag

    Zeit Temperatur Niederschläge Wind Luftdruck Luftfeuchtigkeit
    00:00 +27°C° 0 mm 1 m/S 759 mmHg 87%
    01:00 +27°C° 0 mm 1 m/S 759 mmHg 89%
    02:00 +27°C° 0,1 mm 1 m/S 759 mmHg 89%
    03:00 +27°C° 0,1 mm 1 m/S 758 mmHg 89%
    04:00 +27°C° 0,1 mm 1 m/S 758 mmHg 89%
    05:00 +27°C° 0,1 mm 1 m/S 759 mmHg 88%
    06:00 +27°C° 0,1 mm 1 m/S 759 mmHg 86%
    07:00 +27°C° 0,1 mm 1 m/S 759 mmHg 85%
    08:00 +29°C° 0,1 mm 1 m/S 759 mmHg 78%
    09:00 +30°C° 0,1 mm 1 m/S 759 mmHg 71%
    10:00 +32°C° 0,1 mm 1 m/S 759 mmHg 63%
    11:00 +32°C° 0 mm 2 m/S 759 mmHg 61%
    12:00 +32°C° 0 mm 2 m/S 758 mmHg 59%
    13:00 +34°C° 0 mm 3 m/S 757 mmHg 57%
    14:00 +34°C° 0 mm 3 m/S 757 mmHg 58%
    15:00 +33°C° 0 mm 3 m/S 756 mmHg 59%
    16:00 +33°C° 0 mm 3 m/S 756 mmHg 60%
    17:00 +31°C° 0 mm 3 m/S 756 mmHg 66%
    18:00 +29°C° 0 mm 3 m/S 757 mmHg 72%
    19:00 +28°C° 0 mm 2 m/S 757 mmHg 77%
    20:00 +28°C° 0 mm 2 m/S 758 mmHg 80%
    21:00 +27°C° 0 mm 2 m/S 759 mmHg 82%
    22:00 +27°C° 0 mm 2 m/S 759 mmHg 84%
    23:00 +27°C° 0 mm 1 m/S 759 mmHg 85%

    Morgen, 26 November, Sonntag

    Zeit Temperatur Niederschläge Wind Luftdruck Luftfeuchtigkeit
    00:00 +27°C° 0 mm 1 m/S 759 mmHg 87%
    01:00 +27°C° 0 mm 1 m/S 759 mmHg 88%
    02:00 +27°C° 0 mm 1 m/S 759 mmHg 88%
    03:00 +26°C° 0 mm 1 m/S 759 mmHg 89%
    04:00 +26°C° 0 mm 1 m/S 758 mmHg 90%
    05:00 +27°C° 0 mm 1 m/S 759 mmHg 88%
    06:00 +27°C° 0 mm 1 m/S 759 mmHg 87%
    07:00 +25°C° 0 mm 0 m/S 759 mmHg 85%
    08:00 +28°C° 0 mm 1 m/S 760 mmHg 79%
    09:00 +30°C° 0 mm 1 m/S 760 mmHg 72%
    10:00 +31°C° 0 mm 1 m/S 760 mmHg 66%
    11:00 +32°C° 0 mm 1 m/S 759 mmHg 63%
    12:00 +32°C° 0 mm 2 m/S 759 mmHg 59%
    13:00 +34°C° 0 mm 2 m/S 758 mmHg 56%
    14:00 +33°C° 0 mm 3 m/S 758 mmHg 60%
    15:00 +31°C° 0 mm 3 m/S 758 mmHg 63%
    16:00 +31°C° 0 mm 3 m/S 757 mmHg 67%
    17:00 +30°C° 0,1 mm 2 m/S 758 mmHg 71%
    18:00 +29°C° 0,1 mm 2 m/S 758 mmHg 76%
    19:00 +28°C° 0,1 mm 2 m/S 759 mmHg 81%
    20:00 +28°C° 0,1 mm 2 m/S 760 mmHg 82%
    21:00 +27°C° 0,1 mm 1 m/S 760 mmHg 83%
    22:00 +27°C° 0,1 mm 1 m/S 761 mmHg 85%
    23:00 +27°C° 0,2 mm 1 m/S 760 mmHg 85%

    übermorgen, 27 November, Montag

    Zeit Temperatur Niederschläge Wind Luftdruck Luftfeuchtigkeit
    00:00 +27°C° 0,2 mm 1 m/S 760 mmHg 86%
    01:00 +27°C° 0,2 mm 1 m/S 760 mmHg 86%
    02:00 +27°C° 1 mm 1 m/S 759 mmHg 86%
    03:00 +27°C° 1 mm 1 m/S 759 mmHg 87%
    04:00 +27°C° 1 mm 1 m/S 759 mmHg 87%
    05:00 +27°C° 0,8 mm 1 m/S 759 mmHg 86%
    06:00 +27°C° 0,8 mm 1 m/S 760 mmHg 85%
    07:00 +27°C° 0,8 mm 1 m/S 760 mmHg 84%
    08:00 +28°C° 0,3 mm 1 m/S 760 mmHg 81%
    09:00 +28°C° 0,3 mm 1 m/S 761 mmHg 78%
    10:00 +29°C° 0,3 mm 1 m/S 761 mmHg 75%
    11:00 +29°C° 0,2 mm 2 m/S 761 mmHg 73%
    12:00 +30°C° 0,2 mm 2 m/S 760 mmHg 71%
    13:00 +30°C° 0,2 mm 2 m/S 759 mmHg 69%
    14:00 +31°C° 0,1 mm 2 m/S 759 mmHg 67%
    15:00 +31°C° 0,1 mm 2 m/S 758 mmHg 65%
    16:00 +31°C° 0,1 mm 2 m/S 758 mmHg 63%
    17:00 +30°C° 0 mm 2 m/S 758 mmHg 68%
    18:00 +29°C° 0 mm 2 m/S 759 mmHg 73%
    19:00 +28°C° 0 mm 2 m/S 759 mmHg 79%
    20:00 +27°C° 0 mm 2 m/S 759 mmHg 81%
    21:00 +27°C° 0 mm 2 m/S 760 mmHg 83%
    22:00 +27°C° 0 mm 1 m/S 760 mmHg 85%
    23:00 +26°C° 0 mm 1 m/S 760 mmHg 86%

    28 November, Dienstag

    Zeit Temperatur Niederschläge Wind Luftdruck Luftfeuchtigkeit
    00:00 +26°C° 0 mm 1 m/S 759 mmHg 87%
    01:00 +26°C° 0 mm 1 m/S 759 mmHg 88%
    02:00 +26°C° 0 mm 1 m/S 758 mmHg 89%
    03:00 +26°C° 0 mm 1 m/S 758 mmHg 89%
    04:00 +25°C° 0 mm 1 m/S 758 mmHg 90%
    05:00 +26°C° 0 mm 1 m/S 758 mmHg 88%
    06:00 +26°C° 0 mm 1 m/S 759 mmHg 86%
    07:00 +27°C° 0 mm 1 m/S 759 mmHg 84%
    08:00 +28°C° 0 mm 1 m/S 760 mmHg 75%
    09:00 +30°C° 0 mm 1 m/S 760 mmHg 67%
    10:00 +32°C° 0 mm 1 m/S 760 mmHg 59%
    11:00 +34°C° 0 mm 2 m/S 759 mmHg 55%
    12:00 +35°C° 0 mm 2 m/S 758 mmHg 51%
    13:00 +36°C° 0 mm 3 m/S 757 mmHg 47%
    14:00 +35°C° 0 mm 3 m/S 757 mmHg 50%
    15:00 +34°C° 0 mm 4 m/S 757 mmHg 54%
    16:00 +33°C° 0 mm 4 m/S 756 mmHg 57%
    17:00 +32°C° 0 mm 4 m/S 757 mmHg 64%
    18:00 +29°C° 0 mm 3 m/S 758 mmHg 70%
    19:00 +28°C° 0 mm 3 m/S 758 mmHg 76%
    20:00 +28°C° 0 mm 3 m/S 759 mmHg 78%
    21:00 +27°C° 0 mm 2 m/S 759 mmHg 80%
    22:00 +27°C° 0 mm 2 m/S 760 mmHg 82%
    23:00 +27°C° 0 mm 2 m/S 759 mmHg 83%

    29 November, Mittwoch

    Zeit Temperatur Niederschläge Wind Luftdruck Luftfeuchtigkeit
    00:00 +27°C° 0 mm 1 m/S 759 mmHg 84%
    01:00 +27°C° 0 mm 1 m/S 759 mmHg 86%
    02:00 +27°C° 0 mm 1 m/S 758 mmHg 87%
    03:00 +26°C° 0 mm 1 m/S 758 mmHg 87%
    04:00 +26°C° 0 mm 1 m/S 758 mmHg 88%
    05:00 +26°C° 0 mm 1 m/S 759 mmHg 87%
    06:00 +27°C° 0 mm 1 m/S 759 mmHg 85%
    07:00 +27°C° 0 mm 1 m/S 760 mmHg 83%
    08:00 +28°C° 0 mm 1 m/S 760 mmHg 77%
    09:00 +29°C° 0 mm 1 m/S 760 mmHg 71%
    10:00 +30°C° 0 mm 2 m/S 760 mmHg 65%
    11:00 +31°C° 0 mm 2 m/S 759 mmHg 61%
    12:00 +32°C° 0 mm 2 m/S 758 mmHg 57%
    13:00 +34°C° 0 mm 3 m/S 757 mmHg 53%
    14:00 +34°C° 0 mm 3 m/S 757 mmHg 55%
    15:00 +33°C° 0 mm 4 m/S 756 mmHg 57%
    16:00 +33°C° 0 mm 4 m/S 756 mmHg 59%
    17:00 +32°C° 0 mm 4 m/S 757 mmHg 66%
    18:00 +29°C° 0 mm 3 m/S 757 mmHg 73%
    19:00 +28°C° 0 mm 3 m/S 758 mmHg 80%
    20:00 +27°C° 0 mm 3 m/S 759 mmHg 81%
    21:00 +27°C° 0 mm 2 m/S 759 mmHg 82%
    22:00 +27°C° 0 mm 2 m/S 760 mmHg 84%
    23:00 +27°C° 0 mm 2 m/S 759 mmHg 85%

    30 November, Donnerstag

    Zeit Temperatur Niederschläge Wind Luftdruck Luftfeuchtigkeit
    00:00 +27°C° 0 mm 2 m/S 759 mmHg 85%
    01:00 +27°C° 0 mm 1 m/S 759 mmHg 86%
    02:00 +27°C° 0,1 mm 2 m/S 759 mmHg 86%
    03:00 +27°C° 0,1 mm 2 m/S 759 mmHg 86%
    04:00 +27°C° 0,1 mm 2 m/S 759 mmHg 86%
    05:00 +27°C° 0,1 mm 2 m/S 759 mmHg 86%
    06:00 +27°C° 0,1 mm 2 m/S 760 mmHg 85%
    07:00 +27°C° 0,1 mm 2 m/S 760 mmHg 85%
    08:00 +28°C° 0,1 mm 2 m/S 760 mmHg 81%
    09:00 +28°C° 0,1 mm 2 m/S 760 mmHg 77%
    10:00 +29°C° 0,1 mm 2 m/S 760 mmHg 73%
    11:00 +29°C° 0,2 mm 2 m/S 760 mmHg 73%
    12:00 +29°C° 0,2 mm 2 m/S 759 mmHg 73%
    13:00 +29°C° 0,2 mm 2 m/S 759 mmHg 74%
    14:00 +29°C° 0,1 mm 2 m/S 758 mmHg 74%
    15:00 +29°C° 0,1 mm 2 m/S 758 mmHg 74%
    16:00 +29°C° 0,1 mm 3 m/S 757 mmHg 74%
    17:00 +29°C° 0 mm 2 m/S 758 mmHg 77%
    18:00 +28°C° 0 mm 2 m/S 758 mmHg 80%
    19:00 +28°C° 0 mm 2 m/S 759 mmHg 83%
    20:00 +27°C° 0,1 mm 2 m/S 759 mmHg 84%
    21:00 +27°C° 0,1 mm 2 m/S 760 mmHg 85%
    22:00 +27°C° 0,1 mm 2 m/S 760 mmHg 86%
    23:00 +27°C° 0 mm 2 m/S 760 mmHg 87%
    Mehr zeigen